QPF
0.01 0.01 0.01 0.01 0.02 0.02 0.01 0.01 0.01 0.01 0.01 0.01 0.01 0.01 0.00 0.01 0.01 0.01 0.03 0.05 0.05 0.06 0.06 0.07 0.06 0.05 0.03 0.03 0.03 0.03 0.03 0.02 0.02 0.02 0.03 0.03 0.03 0.04 0.04 0.04 0.06 0.09 0.10
0.01 0.01 0.01 0.01 0.02 0.02 0.01 0.01 0.02 0.01 0.01 0.01 0.01 0.01 0.01 0.01 0.01 0.01 0.01 0.02 0.04 0.05 0.06 0.06 0.06 0.05 0.05 0.05 0.05 0.03 0.03 0.02 0.02 0.03 0.03 0.04 0.03 0.03 0.03 0.03 0.04 0.06 0.07
0.01 0.00 0.00 0.01 0.01 0.01 0.01 0.01 0.02 0.02 0.01 0.01 0.03 0.02 0.02 0.01 0.01 0.01 0.00 0.00 0.00 0.01 0.03 0.05 0.06 0.05 0.06 0.07 0.07 0.05 0.04 0.04 0.03 0.04 0.04 0.05 0.04 0.04 0.04 0.04 0.04 0.04 0.04
0.01 0.00 0.00 0.01 0.01 0.01 0.01 0.01 0.01 0.01 0.02 0.04 0.02 0.01 0.02 0.01 0.01 0.00 0.00 0.00 0.00 0.00 0.01 0.03 0.04 0.05 0.05 0.05 0.06 0.06 0.05 0.05 0.04 0.04 0.04 0.05 0.05 0.04 0.05 0.05 0.03 0.04 0.04
0.01 0.01 0.01 0.01 0.01 0.01 0.01 0.01 0.01 0.02 0.04 0.04 0.02 0.01 0.02 0.01 0.01 0.01 0.01 0.00 0.00 0.00 0.00 0.02 0.03 0.04 0.04 0.05 0.07 0.08 0.08 0.06 0.06 0.05 0.06 0.05 0.04 0.03 0.04 0.04 0.04 0.04 0.04
0.01 0.01 0.02 0.03 0.02 0.01 0.01 0.01 0.02 0.05 0.05 0.02 0.01 0.01 0.01 0.01 0.01 0.02 0.01 0.01 0.00 0.00 0.00 0.01 0.02 0.03 0.03 0.05 0.06 0.07 0.08 0.10 0.12 0.10 0.07 0.06 0.05 0.04 0.04 0.03 0.03 0.04 0.04
0.01 0.02 0.03 0.03 0.02 0.01 0.02 0.02 0.03 0.03 0.01 0.01 0.01 0.00 0.00 0.01 0.01 0.01 0.01 0.01 0.01 0.01 0.01 0.01 0.02 0.01 0.02 0.03 0.05 0.08 0.09 0.10 0.14 0.12 0.08 0.06 0.04 0.03 0.03 0.02 0.02 0.03 0.03
0.01 0.02 0.03 0.03 0.03 0.02 0.02 0.02 0.02 0.01 0.01 0.01 0.01 0.01 0.01 0.01 0.02 0.02 0.01 0.01 0.01 0.01 0.01 0.02 0.02 0.02 0.02 0.02 0.06 0.10 0.10 0.09 0.10 0.10 0.07 0.05 0.03 0.02 0.02 0.02 0.02 0.02 0.03
0.01 0.01 0.01 0.01 0.02 0.03 0.03 0.03 0.03 0.02 0.02 0.02 0.01 0.01 0.01 0.01 0.01 0.02 0.01 0.01 0.02 0.02 0.02 0.02 0.02 0.03 0.05 0.07 0.08 0.07 0.08 0.07 0.07 0.08 0.06 0.04 0.03 0.02 0.02 0.02 0.02 0.02 0.02
0.00 0.00 0.00 0.01 0.02 0.04 0.03 0.03 0.03 0.03 0.02 0.02 0.02 0.01 0.02 0.02 0.01 0.01 0.02 0.01 0.01 0.02 0.02 0.02 0.02 0.04 0.06 0.07 0.06 0.05 0.05 0.04 0.04 0.04 0.04 0.04 0.04 0.04 0.04 0.04 0.03 0.02 0.01
0.00 0.00 0.01 0.01 0.02 0.03 0.02 0.03 0.02 0.03 0.03 0.02 0.03 0.02 0.02 0.01 0.01 0.01 0.01 0.01 0.01 0.02 0.02 0.02 0.03 0.04 0.05 0.05 0.04 0.03 0.04 0.03 0.02 0.02 0.03 0.04 0.05 0.05 0.05 0.04 0.03 0.02 0.02
0.00 0.01 0.01 0.01 0.01 0.02 0.02 0.02 0.02 0.02 0.03 0.02 0.02 0.02 0.01 0.01 0.01 0.01 0.01 0.01 0.01 0.01 0.02 0.02 0.03 0.04 0.03 0.02 0.02 0.02 0.02 0.02 0.02 0.02 0.03 0.05 0.05 0.04 0.04 0.04 0.04 0.03 0.02
0.01 0.01 0.01 0.01 0.01 0.01 0.01 0.01 0.01 0.02 0.02 0.02 0.02 0.02 0.02 0.02 0.01 0.01 0.01 0.01 0.01 0.01 0.01 0.01 0.01 0.01 0.02 0.01 0.01 0.01 0.01 0.01 0.02 0.01 0.02 0.03 0.03 0.02 0.04 0.04 0.03 0.03 0.02
0.01 0.01 0.01 0.01 0.01 0.02 0.01 0.01 0.01 0.02 0.01 0.01 0.02 0.02 0.02 0.02 0.01 0.01 0.00 0.00 0.01 0.01 0.00 0.00 0.00 0.01 0.01 0.01 0.01 0.03 0.01 0.01 0.00 0.00 0.00 0.01 0.02 0.01 0.01 0.02 0.02 0.02 0.01
0.01 0.01 0.01 0.01 0.01 0.01 0.00 0.01 0.01 0.01 0.01 0.01 0.01 0.01 0.02 0.02 0.02 0.01 0.01 0.00 0.00 0.01 0.01 0.00 0.00 0.00 0.00 0.01 0.01 0.01 0.01 0.00 0.00 0.00 0.00 0.00 0.01 0.01 0.01 0.01 0.02 0.02 0.01
0.01 0.01 0.00 0.00 0.01 0.01 0.00 0.00 0.00 0.01 0.01 0.01 0.01 0.02 0.02 0.01 0.01 0.01 0.01 0.01 0.00 0.01 0.01 0.00 0.00 0.00 0.00 0.00 0.01 0.01 0.01 0.01 0.00 0.00 0.00 0.00 0.01 0.01 0.01 0.02 0.02 0.02 0.02
0.01 0.01 0.00 0.00 0.00 0.01 0.01 0.00 0.00 0.00 0.01 0.01 0.01 0.01 0.01 0.01 0.01 0.01 0.01 0.01 0.01 0.00 0.00 0.00 0.00 0.00 0.00 0.00 0.00 0.00 0.00 0.00 0.01 0.01 0.01 0.01 0.01 0.01 0.01 0.02 0.02 0.02 0.01
0.01 0.00 0.00 0.00 0.00 0.00 0.00 0.00 0.00 0.01 0.01 0.01 0.01 0.01 0.01 0.01 0.01 0.01 0.01 0.01 0.01 0.01 0.00 0.00 0.00 0.01 0.01 0.00 0.01 0.00 0.00 0.00 0.00 0.01 0.01 0.01 0.01 0.01 0.01 0.01 0.01 0.01 0.01
0.01 0.00 0.00 0.00 0.00 0.00 0.00 0.00 0.00 0.00 0.00 0.01 0.01 0.01 0.01 0.01 0.01 0.01 0.01 0.01 0.01 0.01 0.01 0.00 0.01 0.02 0.01 0.00 0.01 0.01 0.00 0.00 0.00 0.01 0.01 0.01 0.01 0.01 0.00 0.01 0.01 0.01 0.02
0.01 0.00 0.00 0.00 0.00 0.00 0.00 0.00 0.00 0.00 0.00 0.00 0.01 0.01 0.01 0.01 0.01 0.01 0.01 0.01 0.01 0.01 0.01 0.00 0.01 0.02 0.02 0.01 0.01 0.01 0.01 0.01 0.01 0.01 0.01 0.02 0.02 0.01 0.00 0.01 0.01 0.01 0.02
0.02 0.01 0.01 0.00 0.00 0.00 0.00 0.00 0.00 0.00 0.00 0.01 0.01 0.01 0.01 0.01 0.01 0.01 0.01 0.01 0.01 0.01 0.01 0.01 0.00 0.00 0.01 0.01 0.01 0.00 0.00 0.00 0.00 0.01 0.01 0.02 0.02 0.01 0.00 0.00 0.00 0.00 0.01
0.03 0.02 0.01 0.01 0.00 0.00 0.00 0.00 0.00 0.00 0.00 0.00 0.00 0.01 0.01 0.01 0.01 0.01 0.01 0.01 0.01 0.01 0.01 0.01 0.00 0.00 0.00 0.00 0.00 0.00 0.01 0.01 0.01 0.00 0.00 0.01 0.01 0.00 0.00 0.00 0.00 0.00 0.00
0.01 0.01 0.01 0.01 0.02 0.02 0.01 0.01 0.00 0.00 0.00 0.00 0.00 0.01 0.01 0.01 0.01 0.01 0.01 0.01 0.01 0.01 0.02 0.01 0.01 0.00 0.00 0.00 0.01 0.01 0.01 0.01 0.01 0.01 0.01 0.01 0.01 0.01 0.01 0.00 0.00 0.00 0.00
0.02 0.02 0.02 0.02 0.03 0.03 0.03 0.02 0.02 0.01 0.01 0.00 0.00 0.01 0.01 0.01 0.01 0.01 0.01 0.01 0.01 0.01 0.01 0.01 0.01 0.01 0.01 0.01 0.01 0.01 0.01 0.00 0.00 0.00 0.01 0.01 0.01 0.01 0.01 0.01 0.00 0.00 0.00
0.03 0.03 0.02 0.02 0.02 0.03 0.03 0.03 0.02 0.01 0.01 0.00 0.00 0.00 0.00 0.00 0.00 0.01 0.01 0.01 0.00 0.01 0.01 0.01 0.01 0.01 0.01 0.01 0.00 0.00 0.00 0.00 0.00 0.00 0.01 0.01 0.01 0.01 0.01 0.01 0.01 0.01 0.01
0.02 0.03 0.03 0.03 0.02 0.02 0.02 0.02 0.01 0.01 0.01 0.00 0.00 0.00 0.00 0.00 0.00 0.01 0.01 0.01 0.00 0.00 0.00 0.01 0.01 0.01 0.01 0.01 0.00 0.00 0.00 0.00 0.00 0.00 0.00 0.01 0.01 0.01 0.01 0.01 0.01 0.01 0.01
MSLP
1016.27 1016.44 1016.57 1016.69 1016.82 1016.98 1017.16 1017.38 1017.62 1017.85 1018.03 1018.14 1018.16 1018.08 1017.90 1017.62 1017.27 1016.87 1016.45 1016.04 1015.64 1015.29 1014.99 1014.76 1014.61 1014.52 1014.50 1014.53 1014.58 1014.64 1014.70 1014.74 1014.76 1014.79 1014.82 1014.88 1014.98 1015.11 1015.28 1015.47 1015.66 1015.84 1016.00
1016.42 1016.64 1016.84 1017.03 1017.22 1017.43 1017.66 1017.92 1018.18 1018.43 1018.63 1018.77 1018.81 1018.74 1018.57 1018.30 1017.94 1017.52 1017.07 1016.60 1016.16 1015.76 1015.42 1015.15 1014.97 1014.85 1014.80 1014.79 1014.80 1014.82 1014.82 1014.82 1014.80 1014.80 1014.82 1014.88 1014.98 1015.14 1015.34 1015.55 1015.77 1015.97 1016.14
1016.56 1016.84 1017.10 1017.37 1017.63 1017.91 1018.19 1018.48 1018.76 1019.02 1019.24 1019.40 1019.46 1019.43 1019.30 1019.05 1018.71 1018.30 1017.83 1017.34 1016.86 1016.42 1016.03 1015.71 1015.48 1015.32 1015.22 1015.15 1015.11 1015.06 1015.01 1014.95 1014.89 1014.85 1014.86 1014.91 1015.03 1015.21 1015.44 1015.69 1015.94 1016.17 1016.37
1016.71 1017.03 1017.38 1017.72 1018.06 1018.40 1018.72 1019.03 1019.33 1019.60 1019.82 1019.99 1020.09 1020.10 1020.02 1019.83 1019.54 1019.16 1018.71 1018.23 1017.73 1017.25 1016.82 1016.46 1016.17 1015.94 1015.77 1015.64 1015.53 1015.41 1015.29 1015.17 1015.07 1015.00 1014.98 1015.03 1015.16 1015.37 1015.62 1015.91 1016.19 1016.46 1016.70
1016.89 1017.26 1017.66 1018.07 1018.48 1018.87 1019.23 1019.56 1019.85 1020.10 1020.32 1020.50 1020.63 1020.69 1020.68 1020.57 1020.36 1020.06 1019.67 1019.22 1018.73 1018.25 1017.78 1017.37 1017.02 1016.73 1016.48 1016.28 1016.08 1015.90 1015.71 1015.54 1015.39 1015.29 1015.25 1015.30 1015.44 1015.66 1015.94 1016.25 1016.57 1016.88 1017.15
1017.12 1017.51 1017.95 1018.42 1018.88 1019.30 1019.67 1020.00 1020.27 1020.50 1020.70 1020.88 1021.04 1021.16 1021.22 1021.22 1021.12 1020.93 1020.63 1020.25 1019.81 1019.34 1018.87 1018.42 1018.02 1017.67 1017.35 1017.07 1016.81 1016.56 1016.31 1016.09 1015.90 1015.77 1015.72 1015.76 1015.90 1016.13 1016.42 1016.75 1017.09 1017.42 1017.71
1017.41 1017.80 1018.26 1018.75 1019.22 1019.66 1020.03 1020.33 1020.56 1020.76 1020.94 1021.11 1021.29 1021.47 1021.62 1021.73 1021.77 1021.71 1021.54 1021.26 1020.90 1020.48 1020.02 1019.57 1019.14 1018.73 1018.36 1018.02 1017.70 1017.39 1017.10 1016.84 1016.63 1016.48 1016.42 1016.45 1016.58 1016.79 1017.08 1017.41 1017.75 1018.08 1018.38
1017.75 1018.11 1018.56 1019.04 1019.52 1019.94 1020.28 1020.54 1020.73 1020.88 1021.02 1021.18 1021.38 1021.62 1021.86 1022.10 1022.27 1022.36 1022.33 1022.18 1021.93 1021.58 1021.17 1020.74 1020.29 1019.87 1019.46 1019.08 1018.72 1018.38 1018.06 1017.78 1017.56 1017.39 1017.32 1017.34 1017.45 1017.64 1017.90 1018.20 1018.52 1018.83 1019.11
1018.13 1018.44 1018.85 1019.30 1019.74 1020.13 1020.43 1020.64 1020.78 1020.88 1020.99 1021.14 1021.35 1021.64 1021.96 1022.30 1022.61 1022.84 1022.96 1022.95 1022.82 1022.57 1022.23 1021.84 1021.42 1020.99 1020.58 1020.18 1019.81 1019.46 1019.13 1018.85 1018.62 1018.46 1018.37 1018.38 1018.46 1018.62 1018.84 1019.10 1019.36 1019.63 1019.88
1018.50 1018.76 1019.12 1019.52 1019.92 1020.25 1020.50 1020.66 1020.76 1020.82 1020.89 1021.03 1021.25 1021.57 1021.96 1022.39 1022.81 1023.16 1023.41 1023.53 1023.51 1023.37 1023.12 1022.79 1022.42 1022.02 1021.63 1021.24 1020.87 1020.53 1020.22 1019.94 1019.72 1019.57 1019.48 1019.47 1019.53 1019.66 1019.82 1020.02 1020.23 1020.44 1020.63
1018.83 1019.05 1019.35 1019.70 1020.05 1020.33 1020.54 1020.66 1020.71 1020.74 1020.79 1020.92 1021.14 1021.48 1021.91 1022.39 1022.88 1023.33 1023.68 1023.90 1023.99 1023.94 1023.78 1023.53 1023.22 1022.88 1022.52 1022.17 1021.83 1021.51 1021.22 1020.97 1020.77 1020.63 1020.55 1020.53 1020.57 1020.65 1020.77 1020.91 1021.06 1021.20 1021.34
1019.11 1019.28 1019.54 1019.85 1020.14 1020.38 1020.56 1020.65 1020.68 1020.70 1020.74 1020.86 1021.08 1021.41 1021.85 1022.35 1022.88 1023.37 1023.78 1024.07 1024.24 1024.28 1024.21 1024.04 1023.80 1023.52 1023.22 1022.91 1022.61 1022.32 1022.06 1021.84 1021.67 1021.54 1021.47 1021.46 1021.48 1021.54 1021.62 1021.71 1021.80 1021.89 1021.98
1019.31 1019.46 1019.68 1019.95 1020.21 1020.42 1020.58 1020.66 1020.69 1020.71 1020.75 1020.87 1021.08 1021.40 1021.82 1022.31 1022.82 1023.31 1023.74 1024.07 1024.29 1024.40 1024.40 1024.31 1024.15 1023.94 1023.70 1023.45 1023.19 1022.94 1022.72 1022.53 1022.38 1022.27 1022.22 1022.20 1022.23 1022.27 1022.33 1022.39 1022.44 1022.48 1022.53
1019.43 1019.57 1019.77 1020.01 1020.25 1020.46 1020.61 1020.70 1020.75 1020.79 1020.85 1020.97 1021.17 1021.46 1021.84 1022.28 1022.75 1023.21 1023.62 1023.95 1024.20 1024.35 1024.41 1024.39 1024.31 1024.17 1024.00 1023.80 1023.59 1023.38 1023.19 1023.02 1022.88 1022.80 1022.75 1022.75 1022.78 1022.82 1022.87 1022.92 1022.95 1022.97 1022.98
1019.48 1019.62 1019.81 1020.04 1020.27 1020.48 1020.64 1020.76 1020.85 1020.91 1021.00 1021.13 1021.32 1021.58 1021.91 1022.28 1022.68 1023.08 1023.44 1023.76 1024.01 1024.19 1024.30 1024.35 1024.34 1024.28 1024.17 1024.03 1023.86 1023.68 1023.51 1023.35 1023.22 1023.14 1023.11 1023.11 1023.14 1023.19 1023.25 1023.29 1023.32 1023.34 1023.34
1019.48 1019.62 1019.81 1020.04 1020.27 1020.49 1020.68 1020.83 1020.95 1021.06 1021.18 1021.32 1021.50 1021.73 1022.00 1022.31 1022.63 1022.95 1023.26 1023.54 1023.78 1023.98 1024.14 1024.25 1024.31 1024.31 1024.27 1024.18 1024.05 1023.89 1023.73 1023.57 1023.44 1023.35 1023.31 1023.31 1023.34 1023.40 1023.46 1023.51 1023.55 1023.56 1023.57
1019.45 1019.61 1019.80 1020.03 1020.26 1020.49 1020.70 1020.89 1021.05 1021.20 1021.34 1021.50 1021.67 1021.87 1022.09 1022.33 1022.58 1022.83 1023.08 1023.32 1023.55 1023.76 1023.96 1024.12 1024.25 1024.32 1024.34 1024.29 1024.19 1024.05 1023.88 1023.71 1023.57 1023.45 1023.39 1023.37 1023.39 1023.44 1023.50 1023.56 1023.60 1023.63 1023.63
1019.44 1019.60 1019.80 1020.02 1020.26 1020.49 1020.72 1020.93 1021.12 1021.30 1021.47 1021.63 1021.80 1021.98 1022.15 1022.33 1022.51 1022.70 1022.90 1023.10 1023.32 1023.55 1023.77 1023.99 1024.17 1024.30 1024.37 1024.36 1024.29 1024.16 1023.98 1023.79 1023.62 1023.47 1023.37 1023.31 1023.31 1023.33 1023.38 1023.43 1023.47 1023.49 1023.50
1019.46 1019.62 1019.82 1020.03 1020.26 1020.50 1020.72 1020.94 1021.15 1021.34 1021.53 1021.70 1021.87 1022.02 1022.16 1022.29 1022.42 1022.55 1022.70 1022.88 1023.08 1023.31 1023.56 1023.81 1024.03 1024.21 1024.33 1024.36 1024.30 1024.18 1023.99 1023.78 1023.57 1023.38 1023.23 1023.13 1023.08 1023.06 1023.08 1023.10 1023.12 1023.14 1023.14
1019.51 1019.68 1019.87 1020.07 1020.29 1020.50 1020.72 1020.93 1021.13 1021.33 1021.52 1021.69 1021.84 1021.98 1022.09 1022.18 1022.27 1022.36 1022.47 1022.61 1022.79 1023.02 1023.28 1023.54 1023.80 1024.01 1024.15 1024.21 1024.18 1024.06 1023.87 1023.64 1023.40 1023.16 1022.96 1022.81 1022.70 1022.63 1022.60 1022.58 1022.57 1022.56 1022.54
1019.58 1019.75 1019.94 1020.13 1020.32 1020.51 1020.69 1020.88 1021.07 1021.25 1021.43 1021.59 1021.73 1021.85 1021.94 1022.00 1022.06 1022.11 1022.18 1022.29 1022.44 1022.64 1022.89 1023.15 1023.41 1023.64 1023.80 1023.88 1023.86 1023.75 1023.57 1023.33 1023.06 1022.80 1022.55 1022.35 1022.18 1022.05 1021.96 1021.88 1021.82 1021.77 1021.74
1019.64 1019.82 1020.00 1020.17 1020.34 1020.49 1020.64 1020.79 1020.95 1021.11 1021.26 1021.41 1021.54 1021.65 1021.72 1021.76 1021.78 1021.80 1021.83 1021.89 1022.00 1022.17 1022.38 1022.62 1022.86 1023.08 1023.24 1023.33 1023.33 1023.24 1023.07 1022.84 1022.57 1022.28 1022.01 1021.76 1021.54 1021.35 1021.19 1021.05 1020.94 1020.84 1020.77
1019.65 1019.84 1020.02 1020.17 1020.31 1020.42 1020.54 1020.65 1020.77 1020.90 1021.03 1021.16 1021.28 1021.38 1021.44 1021.46 1021.46 1021.45 1021.44 1021.45 1021.51 1021.61 1021.77 1021.96 1022.16 1022.35 1022.51 1022.60 1022.61 1022.54 1022.40 1022.19 1021.93 1021.65 1021.36 1021.08 1020.82 1020.58 1020.36 1020.17 1019.99 1019.85 1019.73
1019.56 1019.78 1019.95 1020.09 1020.20 1020.28 1020.36 1020.43 1020.51 1020.62 1020.73 1020.86 1020.97 1021.06 1021.12 1021.14 1021.12 1021.08 1021.03 1021.00 1020.99 1021.03 1021.11 1021.23 1021.38 1021.54 1021.67 1021.75 1021.78 1021.74 1021.62 1021.45 1021.22 1020.96 1020.67 1020.38 1020.10 1019.82 1019.55 1019.30 1019.07 1018.87 1018.71
1019.38 1019.61 1019.79 1019.91 1020.00 1020.05 1020.09 1020.13 1020.19 1020.27 1020.38 1020.50 1020.62 1020.72 1020.79 1020.82 1020.80 1020.74 1020.66 1020.58 1020.51 1020.48 1020.49 1020.54 1020.63 1020.73 1020.83 1020.91 1020.94 1020.92 1020.85 1020.71 1020.52 1020.29 1020.03 1019.75 1019.45 1019.14 1018.84 1018.55 1018.27 1018.02 1017.81
1019.10 1019.34 1019.52 1019.63 1019.70 1019.73 1019.74 1019.77 1019.81 1019.88 1019.99 1020.13 1020.26 1020.38 1020.48 1020.52 1020.51 1020.45 1020.35 1020.24 1020.13 1020.04 1019.99 1019.98 1020.00 1020.06 1020.12 1020.18 1020.22 1020.22 1020.18 1020.08 1019.94 1019.74 1019.50 1019.23 1018.94 1018.62 1018.29 1017.96 1017.64 1017.35 1017.09
Thickness
5725 5724 5723 5722 5721 5720 5720 5718 5717 5716 5714 5713 5712 5712 5711 5710 5710 5710 5710 5711 5712 5712 5713 5713 5714 5714 5715 5715 5714 5713 5713 5712 5712 5712 5711 5711 5711 5710 5711 5711 5711 5711 5711
5723 5721 5719 5718 5717 5716 5716 5715 5713 5711 5710 5709 5708 5707 5706 5706 5705 5705 5705 5705 5706 5707 5707 5708 5709 5710 5710 5710 5709 5709 5708 5708 5707 5707 5707 5707 5706 5705 5706 5706 5706 5706 5706
5720 5718 5716 5715 5714 5713 5712 5710 5708 5707 5706 5704 5703 5702 5702 5701 5700 5700 5700 5700 5700 5701 5701 5702 5703 5704 5705 5705 5704 5704 5704 5703 5703 5702 5702 5702 5701 5701 5700 5700 5700 5700 5701
5717 5715 5713 5711 5710 5709 5707 5705 5703 5701 5699 5698 5697 5697 5696 5696 5696 5695 5695 5695 5695 5695 5695 5696 5697 5698 5699 5699 5699 5699 5699 5698 5698 5697 5697 5697 5697 5696 5695 5695 5695 5695 5695
5713 5712 5710 5708 5707 5705 5703 5701 5698 5697 5694 5693 5692 5691 5691 5691 5691 5691 5690 5690 5690 5690 5690 5691 5692 5692 5693 5694 5694 5694 5694 5693 5693 5692 5692 5692 5691 5691 5690 5690 5689 5689 5689
5709 5708 5706 5705 5703 5701 5698 5697 5694 5693 5691 5690 5689 5686 5685 5685 5685 5685 5685 5685 5685 5685 5685 5685 5686 5686 5687 5688 5688 5688 5688 5688 5687 5687 5686 5686 5685 5685 5685 5684 5684 5683 5683
5706 5704 5702 5701 5700 5697 5695 5693 5691 5689 5686 5686 5683 5679 5678 5680 5679 5680 5680 5680 5680 5680 5680 5680 5680 5680 5680 5681 5682 5682 5682 5682 5682 5681 5680 5680 5679 5679 5679 5678 5678 5677 5677
5702 5701 5700 5698 5696 5694 5691 5690 5688 5685 5683 5684 5680 5674 5670 5670 5672 5674 5674 5674 5674 5674 5674 5674 5674 5674 5674 5675 5675 5676 5676 5676 5676 5675 5674 5673 5673 5673 5672 5672 5671 5671 5670
5699 5699 5697 5695 5693 5691 5688 5687 5686 5683 5680 5680 5680 5676 5669 5665 5665 5667 5668 5668 5669 5669 5669 5669 5668 5668 5669 5669 5669 5669 5670 5670 5669 5669 5668 5667 5667 5666 5666 5665 5664 5664 5664
5696 5696 5694 5692 5690 5689 5687 5685 5684 5682 5680 5677 5677 5677 5675 5671 5664 5659 5661 5662 5663 5663 5663 5664 5663 5663 5663 5663 5663 5663 5663 5663 5663 5663 5662 5661 5661 5660 5660 5659 5658 5658 5657
5694 5693 5691 5690 5688 5686 5685 5684 5682 5681 5679 5677 5675 5674 5671 5669 5667 5661 5655 5655 5656 5657 5658 5658 5658 5658 5658 5657 5657 5657 5657 5657 5657 5657 5656 5656 5655 5654 5654 5653 5652 5652 5651
5690 5689 5689 5687 5686 5684 5683 5682 5680 5679 5677 5676 5674 5673 5670 5667 5663 5660 5654 5651 5650 5651 5652 5653 5652 5652 5652 5652 5652 5651 5651 5651 5651 5651 5651 5650 5649 5649 5648 5647 5646 5646 5645
5686 5686 5685 5684 5683 5682 5681 5680 5678 5676 5675 5674 5672 5670 5669 5668 5665 5661 5656 5650 5647 5646 5647 5647 5647 5648 5647 5647 5646 5646 5646 5646 5646 5645 5645 5644 5644 5643 5642 5642 5641 5640 5639
5685 5684 5683 5682 5680 5679 5678 5676 5675 5673 5672 5671 5670 5668 5666 5665 5664 5661 5656 5650 5644 5641 5641 5641 5642 5643 5643 5642 5642 5641 5641 5641 5641 5640 5640 5639 5638 5637 5637 5636 5635 5634 5633
5683 5681 5680 5678 5677 5676 5675 5673 5670 5669 5668 5666 5665 5664 5662 5661 5660 5659 5656 5654 5647 5639 5636 5638 5638 5639 5639 5638 5637 5637 5636 5636 5636 5635 5635 5634 5633 5632 5631 5630 5628 5627 5626
5680 5678 5676 5675 5673 5672 5670 5669 5666 5665 5663 5662 5661 5659 5658 5656 5655 5654 5653 5650 5648 5643 5636 5636 5635 5636 5635 5634 5633 5633 5632 5631 5631 5630 5629 5628 5627 5626 5625 5624 5622 5620 5619
5677 5675 5673 5671 5669 5668 5666 5664 5662 5661 5659 5658 5656 5655 5653 5653 5651 5649 5648 5646 5644 5642 5636 5633 5632 5632 5630 5630 5629 5628 5627 5627 5626 5625 5625 5623 5622 5621 5619 5618 5616 5614 5612
5674 5672 5670 5668 5666 5664 5662 5660 5658 5657 5655 5653 5652 5650 5649 5648 5646 5645 5643 5641 5640 5638 5635 5630 5628 5627 5626 5625 5624 5623 5623 5622 5621 5621 5619 5618 5617 5616 5614 5613 5611 5608 5606
5670 5667 5665 5663 5661 5660 5658 5656 5654 5653 5651 5650 5648 5646 5645 5643 5641 5640 5639 5637 5635 5634 5631 5627 5624 5623 5621 5620 5619 5618 5617 5616 5616 5615 5614 5613 5612 5610 5609 5608 5605 5603 5600
5665 5662 5660 5659 5657 5656 5654 5652 5650 5648 5646 5645 5644 5643 5641 5640 5638 5636 5635 5633 5631 5628 5625 5622 5619 5617 5616 5615 5613 5611 5610 5610 5610 5610 5609 5608 5607 5605 5604 5602 5600 5598 5595
5660 5658 5655 5654 5652 5651 5649 5647 5645 5643 5641 5640 5639 5638 5638 5637 5636 5634 5632 5629 5627 5622 5619 5616 5614 5612 5610 5608 5608 5607 5605 5604 5604 5604 5603 5603 5601 5600 5598 5597 5595 5593 5590
5655 5653 5650 5649 5647 5647 5646 5644 5641 5638 5636 5635 5633 5632 5632 5632 5631 5630 5629 5627 5625 5620 5615 5613 5610 5608 5607 5606 5604 5603 5600 5598 5597 5599 5597 5596 5595 5593 5593 5591 5590 5587 5585
5649 5647 5646 5644 5643 5642 5642 5640 5637 5634 5632 5630 5628 5627 5627 5626 5625 5624 5623 5622 5620 5618 5617 5613 5609 5608 5606 5605 5602 5599 5596 5595 5594 5594 5591 5590 5589 5587 5588 5586 5584 5582 5580
5644 5643 5641 5640 5638 5638 5637 5635 5632 5629 5626 5625 5624 5623 5621 5620 5619 5618 5617 5615 5613 5612 5611 5610 5609 5607 5606 5604 5601 5599 5595 5591 5590 5588 5586 5583 5583 5582 5582 5581 5579 5577 5575
5639 5638 5637 5635 5633 5632 5632 5630 5628 5624 5621 5620 5619 5618 5617 5615 5615 5614 5611 5609 5606 5606 5606 5605 5604 5603 5602 5600 5597 5592 5588 5584 5582 5582 5580 5578 5577 5576 5576 5575 5574 5572 5570
5635 5633 5632 5630 5629 5627 5627 5625 5623 5620 5616 5615 5614 5613 5613 5612 5610 5609 5606 5604 5601 5600 5600 5599 5598 5597 5595 5594 5592 5589 5586 5580 5577 5575 5575 5572 5571 5568 5568 5569 5568 5566 5563